map of LSE home
Great Circle Mapper logo
LSE - Airport
Location
City:  La Crosse, Wisconsin, United States
Name:La Crosse Municipal Airport
ICAO / IATA:KLSE / LSE
FAA:LSE

Details
Type:Airport (Part 139 Class I)
Use:Public/Civil
Latitude:4352'45"N (43.879278)
Longitude:9115'24"W (-91.256638)
Datum:WGS 1984
Elevation:655 ft (200 m)
Runways:3
Longest:8742 × 150 ft (2665 × 45.5 m), paved

Time
Time Zone:UTC-6 (DST-5)
Local Time:

Weather
METAR:KLSE 250853Z AUTO 22004KT 10SM CLR 04/03 A2974 RMK AO2 SLP075 T00440028 53001 TSNO
TAF:KLSE 250520Z 2506/2606 29005KT P6SM SCT020
TEMPO 2506/2507 BKN020
FM250900 VRB03KT 2SM BR SKC
FM251400 27008KT P6SM SCT020
FM251800 30015G24KT P6SM SCT150
FM260000 34006KT P6SM SCT150

Related Locations
Nearby:
Farthest:MGV: 10871 mi / 17496 km
Margaret River, WA, AU

Find:

   beyond  
but within

Other Information
Maps:
Delays:
NOTAMs:
Links:
Sources:

  
flag of United States
flag of Wisconsin
  

Airport Diagram

Airport diagram for LSE

Airport diagram PDF

Sectional Chart

Flight Planning
at skyvector.com

Satellite Image

Google Maps Satellite View

 

Copyright © 2004-2014 Karl L. Swartz. All rights reserved.
The Great Circle Mapper name and logo are trademarks of the Great Circle Mapper.
All other trademarks mentioned herein belong to their respective owners.
Please see credits for attibutions and further copyright information.

  Follow gcmap on Facebook Follow gcmap on Twitter

hCard Microformat

Geo Microformat